STARLINK D

Last updated on June 19, 2020, 12:02 a.m. UTC

1 45733U 20038D   20170.75001157  .04203865  21864-1  10048-1 0  9995
2 45733  53.0017 271.8604 0097955  68.2031 134.4133 15.91095262  2138

Satellite is not in orbit.